Location: Winthrop
(48.4780°N, 120.1850°W)
Time: 11:44:03
(UTC-07:00)

Transit 2A - Visible Passes

Search period start: 14 June 2024 00:00
Search period end: 24 June 2024 00:00
Orbit: 593 x 959 km, 66.7° (Epoch: 13 June)

Date Brightness Start Highest point End Pass type
(mag) Time Alt. Az. Time Alt. Az. Time Alt. Az.
14 Jun 7.6 01:32:21 10° NNW 01:38:01 42° NE 01:43:57 10° ESE visible
14 Jun 6.6 03:15:30 10° NW 03:21:23 51° WSW 03:27:28 10° S visible
14 Jun 9.0 23:14:24 10° NNW 23:17:34 15° NNE 23:20:52 10° NE visible
15 Jun 8.0 00:57:12 10° NNW 01:02:34 33° NE 01:08:12 10° ESE visible
15 Jun 6.4 02:40:09 10° NW 02:46:13 69° WSW 02:52:30 10° SSE visible
15 Jun 9.0 22:39:04 10° NNW 22:41:51 13° N 22:44:41 10° NE visible
16 Jun 8.3 00:22:03 10° NNW 00:27:04 27° NE 00:32:19 10° E visible
16 Jun 6.4 02:04:53 10° NW 02:11:00 90° NNE 02:17:22 10° SSE visible
16 Jun 7.7 03:49:13 10° WNW 03:53:31 20° WSW 03:57:54 10° SSW visible
16 Jun 9.0 22:03:36 10° NNW 22:06:05 13° N 22:08:38 10° NNE visible
16 Jun 8.5 23:46:55 10° NNW 23:51:31 23° NNE 23:56:19 10° E visible
17 Jun 6.7 01:29:39 10° NNW 01:35:44 69° NE 01:42:03 10° SE visible
17 Jun 7.4 03:13:26 10° NW 03:18:32 28° WSW 03:22:40 14° SSW visible
17 Jun 8.7 23:11:44 10° NNW 23:15:53 19° NNE 23:20:13 10° ENE visible
18 Jun 7.1 00:54:27 10° NNW 01:00:23 53° NE 01:06:35 10° SE visible
18 Jun 7.0 02:37:53 10° NW 02:43:29 38° WSW 02:47:19 19° SSW visible
18 Jun 8.8 22:36:32 10° NNW 22:40:13 17° NNE 22:44:02 10° ENE visible
19 Jun 7.5 00:19:17 10° NNW 00:25:00 41° NE 00:30:57 10° ESE visible
19 Jun 6.6 02:02:26 10° NW 02:08:22 52° WSW 02:12:09 23° S visible
19 Jun 8.8 22:01:16 10° NNW 22:04:30 15° NNE 22:07:50 10° NE visible
19 Jun 7.8 23:44:07 10° NNW 23:49:32 33° NE 23:55:11 10° ESE visible
20 Jun 6.4 01:27:06 10° NW 01:33:13 70° WSW 01:37:07 24° SSE visible
20 Jun 8.1 03:12:19 10° WNW 03:15:26 14° WSW 03:17:29 12° WSW visible
20 Jun 8.1 23:08:58 10° NNW 23:14:01 27° NE 23:19:16 10° E visible
21 Jun 6.4 00:51:49 10° NW 00:57:59 88° NE 01:02:12 23° SE visible
21 Jun 7.8 02:36:07 10° WNW 02:40:31 20° WSW 02:42:33 18° SW visible
21 Jun 8.3 22:33:48 10° NNW 22:38:26 22° NNE 22:43:15 10° E visible
22 Jun 6.7 00:16:35 10° NNW 00:22:41 68° NE 00:27:22 19° SE visible
22 Jun 7.5 02:00:20 10° NW 02:05:30 28° WSW 02:07:44 23° SW visible
22 Jun 8.5 21:58:37 10° NNW 22:02:48 19° NNE 22:07:09 10° ENE visible
22 Jun 7.0 23:41:22 10° NNW 23:47:20 52° NE 23:52:36 14° ESE visible
23 Jun 7.1 01:24:46 10° NW 01:30:27 39° WSW 01:32:58 28° SSW visible
23 Jun 7.4 23:06:12 10° NNW 23:11:55 41° NE 23:17:53 10° ESE visible
